AHX107 RJDA-RJFF

Flight info

Callsign AHX107
Flight time 0h 31m
Altitude 9000
Route HABOH FUGEN OMUTA Y14 OSTEP
Aircraft AT46/M-SDFGIRY/S

Departure

Time 2026-05-07 13:35
Airport Amakusa Airport (RJDA)

Arrival

Time 2026-05-07 14:07
Airport Fukuoka Airport (RJFF)
Time Latitude Longitude Altitude Speed Heading
2026-05-07 13:21 32.48311 130.15571 339 ft 0 kts 335°
2026-05-07 13:32 32.48319 130.15566 337 ft 4 kts 335°
2026-05-07 13:33 32.48335 130.15568 338 ft 4 kts 27°
2026-05-07 13:33 32.48367 130.15595 336 ft 8 kts 33°
2026-05-07 13:33 32.48408 130.15596 335 ft 7 kts 329°
2026-05-07 13:33 32.48442 130.15553 336 ft 8 kts 304°
2026-05-07 13:34 32.48462 130.15500 337 ft 7 kts 285°
2026-05-07 13:34 32.48468 130.15511 333 ft 7 kts 123°
2026-05-07 13:34 32.48412 130.15605 336 ft 37 kts 125°
2026-05-07 13:35 32.48116 130.16109 348 ft 111 kts 125°
2026-05-07 13:35 32.47692 130.16967 797 ft 123 kts 109°
2026-05-07 13:35 32.47731 130.18014 1358 ft 138 kts 65°
2026-05-07 13:35 32.48352 130.18968 1875 ft 155 kts 46°
2026-05-07 13:36 32.49077 130.19903 2446 ft 154 kts 46°
2026-05-07 13:36 32.49768 130.20872 2971 ft 154 kts 53°
2026-05-07 13:36 32.50402 130.21906 3436 ft 161 kts 56°
2026-05-07 13:36 32.51076 130.23070 3796 ft 176 kts 56°
2026-05-07 13:37 32.51775 130.24273 4375 ft 177 kts 56°
2026-05-07 13:37 32.52473 130.25483 4958 ft 178 kts 56°
2026-05-07 13:37 32.53171 130.26703 5514 ft 179 kts 55°
2026-05-07 13:37 32.53867 130.27916 6033 ft 183 kts 54°
2026-05-07 13:38 32.54666 130.29274 6018 ft 217 kts 54°
2026-05-07 13:38 32.55580 130.30832 6001 ft 242 kts 54°
2026-05-07 13:38 32.56576 130.32528 5986 ft 258 kts 54°
2026-05-07 13:38 32.57625 130.34308 5978 ft 268 kts 54°
2026-05-07 13:39 32.58699 130.36144 6045 ft 271 kts 55°
2026-05-07 13:39 32.59973 130.37757 6087 ft 270 kts 30°
2026-05-07 13:39 32.61739 130.38367 6209 ft 264 kts 357°
2026-05-07 13:39 32.63540 130.38095 6270 ft 261 kts 348°
2026-05-07 13:40 32.65292 130.37766 6680 ft 248 kts 348°
2026-05-07 13:40 32.66972 130.37558 7174 ft 239 kts 353°
2026-05-07 13:40 32.68615 130.37572 7641 ft 234 kts 359°
2026-05-07 13:40 32.70240 130.37793 7985 ft 236 kts
2026-05-07 13:41 32.71864 130.38134 8317 ft 238 kts
2026-05-07 13:41 32.73494 130.38503 8631 ft 240 kts
2026-05-07 13:41 32.75158 130.38878 8794 ft 247 kts
2026-05-07 13:41 32.76887 130.39240 8878 ft 258 kts
2026-05-07 13:42 32.78690 130.39605 8925 ft 267 kts
2026-05-07 13:42 32.80549 130.39979 8943 ft 274 kts
2026-05-07 13:42 32.82453 130.40362 8952 ft 279 kts
2026-05-07 13:42 32.84380 130.40748 8957 ft 281 kts
2026-05-07 13:43 32.86309 130.41135 8958 ft 280 kts
2026-05-07 13:43 32.88233 130.41520 8958 ft 280 kts
2026-05-07 13:43 32.90150 130.41903 8960 ft 279 kts
2026-05-07 13:43 32.92067 130.42288 8959 ft 279 kts
2026-05-07 13:44 32.93986 130.42673 8958 ft 279 kts
2026-05-07 13:44 32.95880 130.43050 8958 ft 279 kts
2026-05-07 13:44 32.97797 130.43434 8966 ft 280 kts
2026-05-07 13:44 32.99717 130.43822 8964 ft 280 kts
2026-05-07 13:45 33.01637 130.44207 8961 ft 280 kts
2026-05-07 13:45 33.03561 130.44594 8962 ft 280 kts
2026-05-07 13:45 33.05479 130.44977 8962 ft 279 kts
2026-05-07 13:45 33.07388 130.45059 8964 ft 272 kts 351°
2026-05-07 13:46 33.09263 130.44821 8964 ft 271 kts 348°
2026-05-07 13:46 33.11141 130.44545 8965 ft 272 kts 348°
2026-05-07 13:46 33.12981 130.44156 8965 ft 264 kts 337°
2026-05-07 13:46 33.14680 130.43404 8964 ft 264 kts 334°
2026-05-07 13:47 33.16383 130.42580 8964 ft 265 kts 333°
2026-05-07 13:47 33.18086 130.41731 8968 ft 266 kts 332°
2026-05-07 13:47 33.19792 130.40868 8967 ft 267 kts 332°
2026-05-07 13:47 33.21500 130.39999 8995 ft 266 kts 332°
2026-05-07 13:48 33.23203 130.39130 9008 ft 266 kts 332°
2026-05-07 13:48 33.24909 130.38258 9010 ft 267 kts 332°
2026-05-07 13:48 33.26616 130.37384 9012 ft 267 kts 332°
2026-05-07 13:48 33.28339 130.36499 8735 ft 271 kts 332°
2026-05-07 13:49 33.30067 130.35605 8410 ft 271 kts 332°
2026-05-07 13:49 33.31797 130.34701 8082 ft 271 kts 332°
2026-05-07 13:49 33.32965 130.34088 7868 ft 271 kts 332°
2026-05-07 13:50 33.34207 130.33431 7645 ft 271 kts 332°
2026-05-07 13:50 33.35937 130.32510 7330 ft 271 kts 332°
2026-05-07 13:50 33.37663 130.31584 7005 ft 271 kts 332°
2026-05-07 13:50 33.39380 130.30655 6682 ft 271 kts 332°
2026-05-07 13:51 33.41095 130.29719 6383 ft 270 kts 332°
2026-05-07 13:51 33.42792 130.28786 6189 ft 266 kts 332°
2026-05-07 13:51 33.44460 130.27871 6082 ft 260 kts 332°
2026-05-07 13:51 33.46093 130.26972 6037 ft 259 kts 332°
2026-05-07 13:52 33.47637 130.26123 5835 ft 265 kts 332°
2026-05-07 13:52 33.49373 130.25171 5480 ft 268 kts 332°
2026-05-07 13:52 33.51050 130.24250 5224 ft 267 kts 332°
2026-05-07 13:52 33.52727 130.23337 5118 ft 261 kts 332°
2026-05-07 13:53 33.54367 130.22444 5066 ft 256 kts 332°
2026-05-07 13:53 33.55975 130.21575 5037 ft 251 kts 332°
2026-05-07 13:53 33.57553 130.20720 5018 ft 247 kts 332°
2026-05-07 13:53 33.59109 130.19876 5017 ft 244 kts 332°
2026-05-07 13:54 33.60650 130.19042 5014 ft 242 kts 332°
2026-05-07 13:54 33.62186 130.18218 5004 ft 241 kts 332°
2026-05-07 13:54 33.63716 130.17402 4995 ft 239 kts 332°
2026-05-07 13:54 33.65234 130.16592 4996 ft 238 kts 332°
2026-05-07 13:55 33.66747 130.15785 5005 ft 238 kts 332°
2026-05-07 13:55 33.68258 130.14978 5003 ft 238 kts 332°
2026-05-07 13:55 33.69767 130.14172 4998 ft 237 kts 332°
2026-05-07 13:55 33.71276 130.13368 4993 ft 237 kts 332°
2026-05-07 13:56 33.72765 130.12578 4987 ft 237 kts 332°
2026-05-07 13:56 33.74273 130.11778 4988 ft 237 kts 332°
2026-05-07 13:56 33.75787 130.10979 4986 ft 239 kts 332°
2026-05-07 13:56 33.77327 130.10235 4985 ft 240 kts 342°
2026-05-07 13:57 33.79004 130.10390 4975 ft 250 kts 18°
2026-05-07 13:57 33.80421 130.11658 4700 ft 260 kts 53°
2026-05-07 13:57 33.81094 130.13653 4423 ft 261 kts 86°
2026-05-07 13:57 33.81022 130.15805 4149 ft 257 kts 99°
2026-05-07 13:58 33.80818 130.17946 3872 ft 259 kts 101°
2026-05-07 13:58 33.80581 130.20095 3603 ft 259 kts 102°
2026-05-07 13:58 33.80026 130.22100 3336 ft 250 kts 120°
2026-05-07 13:58 33.79249 130.23981 3080 ft 251 kts 121°
2026-05-07 13:59 33.78455 130.25844 2907 ft 249 kts 121°
2026-05-07 13:59 33.77658 130.27682 2739 ft 248 kts 121°
2026-05-07 13:59 33.76854 130.29508 2563 ft 246 kts 122°
2026-05-07 13:59 33.75828 130.31066 2394 ft 235 kts 149°
2026-05-07 14:00 33.74330 130.31644 2213 ft 224 kts 177°
2026-05-07 14:00 33.72780 130.31798 2096 ft 222 kts 180°
2026-05-07 14:00 33.71243 130.31892 2049 ft 222 kts 181°
2026-05-07 14:00 33.69694 130.31956 2027 ft 223 kts 181°
2026-05-07 14:01 33.68145 130.31997 2020 ft 223 kts 181°
2026-05-07 14:01 33.66591 130.32027 2021 ft 223 kts 182°
2026-05-07 14:01 33.65053 130.32050 2019 ft 224 kts 182°
2026-05-07 14:01 33.63496 130.32077 2019 ft 224 kts 182°
2026-05-07 14:02 33.61912 130.32100 2021 ft 225 kts 182°
2026-05-07 14:02 33.60393 130.32421 2018 ft 225 kts 158°
2026-05-07 14:02 33.59029 130.33337 2014 ft 226 kts 152°
2026-05-07 14:02 33.57710 130.34342 2014 ft 228 kts 150°
2026-05-07 14:03 33.56594 130.35656 2005 ft 230 kts 121°
2026-05-07 14:03 33.55960 130.37448 2006 ft 231 kts 114°
2026-05-07 14:03 33.55381 130.39255 1995 ft 234 kts 112°
2026-05-07 14:03 33.54775 130.41055 1892 ft 235 kts 121°
2026-05-07 14:04 33.53716 130.42504 1805 ft 228 kts 139°
2026-05-07 14:04 33.52602 130.43750 1796 ft 206 kts 138°
2026-05-07 14:04 33.51954 130.45150 1759 ft 189 kts 102°
2026-05-07 14:04 33.52203 130.46599 1546 ft 168 kts 58°
2026-05-07 14:05 33.52917 130.47578 1425 ft 142 kts 36°
2026-05-07 14:05 33.53851 130.47987 1097 ft 147 kts
2026-05-07 14:05 33.54802 130.47718 829 ft 143 kts 326°
2026-05-07 14:05 33.55631 130.47072 555 ft 139 kts 330°
2026-05-07 14:06 33.56456 130.46513 366 ft 134 kts 330°
2026-05-07 14:06 33.57259 130.45971 181 ft 131 kts 331°
2026-05-07 14:06 33.58012 130.45463 51 ft 110 kts 330°
2026-05-07 14:06 33.58564 130.45088 34 ft 52 kts 331°
2026-05-07 14:07 33.58800 130.44948 31 ft 25 kts 351°
2026-05-07 14:07 33.58928 130.44939 28 ft 12 kts
2026-05-07 14:07 33.58954 130.44939 21 ft 0 kts
2026-05-07 14:09 33.58956 130.44939 27 ft 2 kts
2026-05-07 14:09 33.58976 130.44939 26 ft 7 kts
2026-05-07 14:10 33.59040 130.44940 24 ft 11 kts
2026-05-07 14:10 33.59110 130.44937 21 ft 7 kts 347°
2026-05-07 14:10 33.59173 130.44899 21 ft 7 kts 333°
2026-05-07 14:10 33.59189 130.44901 23 ft 2 kts 46°
2026-05-07 14:11 33.59197 130.44927 24 ft 5 kts 63°
2026-05-07 14:11 33.59212 130.44959 22 ft 4 kts 60°
2026-05-07 14:11 33.59223 130.44982 22 ft 1 kts 62°
2026-05-07 14:11 33.59228 130.44993 26 ft 0 kts 62°
2026-05-07 14:12 33.59230 130.44999 25 ft 0 kts 62°